Flag for U.S.A. Weather past 2 weeks in Green Bay, Wisconsin, U.S.A.

Now
20 °F

Mostly cloudy.


Feels Like: 12 °F
Forecast: 16 / 29 °F
Wind: 6 mph from South

Location: Austin Straubel International Airport

Current Time: Jan 30, 2015 at 7:22:47 PM

Latest Report: Jan 30, 2015 at 6:53 PM


Visibility: 10 mi

Pressure: 30.40 "Hg

Humidity: 65%

Dew point: 10 °F

Location of Green BayLocation

Historic Weather in Green Bay — Graph

°F

Green Bay temperature yesterday

Maximum temperature yesterday: 34 °F (at 12:53 PM)
Minimum temperature yesterday: 21 °F (at 11:53 PM)
Average temperature yesterday: 30 °F

Past Weeks' High & Low Weather Summary

 TemperatureHumidityPressure
High39 °F (Jan 17, 12:53 PM)92% (Jan 20, 1:53 AM)30.57 "Hg (Jan 20, 1:53 AM)
Low11 °F (Jan 26, 2:53 AM)52% (Jan 29, 8:53 PM)29.44 "Hg (Jan 17, 2:53 PM)
Average26 °F76%30.02 "Hg
* Reported Jan 15 5:53 PM — Jan 30 5:53 PM, Green Bay, Weather by CustomWeather, © 2014

Note: Actual official high and low records may vary slightly from our data, if they occured in-between our weather recording intervals... More about our weather records

Advertising

Green Bay weather history for previous 24 hours

 ConditionsComfort  
Time TempWeatherWind HumidityBarometerVisibility
5:53 PM
Jan 30
20 °FOvercast.6 mph68%30.42 "Hg10 mi
4:53 PM21 °FPartly sunny.5 mph60%30.44 "Hg10 mi
3:53 PM21 °FPartly sunny.5 mph60%30.44 "Hg10 mi
2:53 PM21 °FPartly sunny.5 mph57%30.47 "Hg10 mi
1:53 PM20 °FScattered clouds.8 mph60%30.48 "Hg10 mi
12:53 PM19 °FPartly sunny.3 mph59%30.51 "Hg10 mi
11:53 AM19 °FPassing clouds.No wind59%30.54 "Hg10 mi
10:53 AM19 °FPassing clouds.7 mph57%30.56 "Hg10 mi
9:53 AM18 °FSunny.3 mph59%30.57 "Hg10 mi
8:53 AM18 °FScattered clouds.5 mph59%30.55 "Hg10 mi
7:53 AM14 °FOvercast.3 mph71%30.53 "Hg10 mi
6:53 AM14 °FOvercast.3 mph67%30.53 "Hg10 mi
5:53 AM15 °FOvercast.5 mph67%30.52 "Hg10 mi
4:53 AM17 °FOvercast.12 mph59%30.50 "Hg10 mi
3:53 AM18 °FOvercast.10 mph62%30.48 "Hg10 mi
2:53 AM17 °FPassing clouds.7 mph59%30.45 "Hg10 mi
1:53 AM18 °FPassing clouds.6 mph65%30.44 "Hg10 mi
12:53 AM20 °FPassing clouds.13 mph62%30.42 "Hg10 mi
11:53 PM
Jan 29
21 °FOvercast.13 mph68%30.40 "Hg10 mi
10:53 PM23 °FOvercast.9 mph63%30.37 "Hg10 mi
9:53 PM23 °FOvercast.12 mph63%30.34 "Hg10 mi
8:53 PM24 °FOvercast.21 mph52%30.32 "Hg10 mi
7:53 PM25 °FOvercast.13 mph60%30.28 "Hg10 mi
Weather by CustomWeather, © 2014

See weather overviewHow to use our weather pages